Time,TemperatureF,DewpointF,PressureIn,WindDirection,WindDirectionDegrees,WindSpeedMPH,WindSpeedGustMPH,Humidity,HourlyPrecipIn,Conditions,Clouds,dailyrainin,SoftwareType,DateUTC
2013-02-12 00:00:00,30.6,24.6,30.03,West,270,11.0,22.0,78,0.00,,,0.01,WUHU216DAVISVP2,2013-02-12 05:00:00,
2013-02-12 00:05:00,30.6,24.6,30.03,WNW,283,16.0,23.0,78,0.00,,,0.00,WUHU216DAVISVP2,2013-02-12 05:05:00,
2013-02-12 00:10:00,30.6,24.6,30.02,West,271,10.0,23.0,78,0.00,,,0.00,WUHU216DAVISVP2,2013-02-12 05:10:00,
2013-02-12 00:15:00,30.6,24.6,30.02,West,267,15.0,22.0,78,0.00,,,0.00,WUHU216DAVISVP2,2013-02-12 05:15:00,
2013-02-12 00:20:00,30.6,24.6,30.03,WNW,292,9.0,22.0,78,0.00,,,0.00,WUHU216DAVISVP2,2013-02-12 05:20:00,
2013-02-12 00:25:00,30.6,24.6,30.03,West,270,14.0,22.0,78,0.00,,,0.00,WUHU216DAVISVP2,2013-02-12 05:25:00,
2013-02-12 00:30:00,30.6,24.6,30.03,West,262,18.0,22.0,78,0.00,,,0.00,WUHU216DAVISVP2,2013-02-12 05:30:00,
2013-02-12 00:35:00,30.6,24.6,30.04,West,270,15.0,22.0,78,0.00,,,0.00,WUHU216DAVISVP2,2013-02-12 05:35:00,
2013-02-12 00:40:00,30.6,24.6,30.04,West,268,13.0,22.0,78,0.00,,,0.00,WUHU216DAVISVP2,2013-02-12 05:40:00,
2013-02-12 00:45:00,30.6,24.6,30.04,West,264,15.0,22.0,78,0.00,,,0.00,WUHU216DAVISVP2,2013-02-12 05:45:00,
2013-02-12 00:50:00,30.5,24.8,30.04,West,259,10.0,22.0,79,0.00,,,0.00,WUHU216DAVISVP2,2013-02-12 05:50:00,
2013-02-12 00:55:00,30.5,24.8,30.04,West,262,15.0,22.0,79,0.00,,,0.00,WUHU216DAVISVP2,2013-02-12 05:55:00,
2013-02-12 01:00:00,30.4,24.4,30.04,West,266,10.0,22.0,78,0.00,,,0.00,WUHU216DAVISVP2,2013-02-12 06:00:00,
2013-02-12 01:05:00,30.4,24.7,30.04,West,270,14.0,21.0,79,0.00,,,0.00,WUHU216DAVISVP2,2013-02-12 06:05:00,
2013-02-12 01:10:00,30.4,25.0,30.04,West,278,11.0,21.0,80,0.00,,,0.00,WUHU216DAVISVP2,2013-02-12 06:10:00,
2013-02-12 01:15:00,30.4,24.7,30.05,West,260,9.0,21.0,79,0.00,,,0.00,WUHU216DAVISVP2,2013-02-12 06:15:00,
2013-02-12 01:20:00,30.3,24.6,30.05,WNW,285,10.0,20.0,79,0.00,,,0.00,WUHU216DAVISVP2,2013-02-12 06:20:00,
2013-02-12 01:25:00,30.3,24.9,30.05,WSW,255,11.0,20.0,80,0.00,,,0.00,WUHU216DAVISVP2,2013-02-12 06:25:00,
2013-02-12 01:30:00,30.3,24.9,30.05,West,270,14.0,20.0,80,0.00,,,0.00,WUHU216DAVISVP2,2013-02-12 06:30:00,
2013-02-12 01:35:00,30.3,24.9,30.05,WSW,257,10.0,21.0,80,0.00,,,0.00,WUHU216DAVISVP2,2013-02-12 06:35:00,
2013-02-12 01:40:00,30.2,24.5,30.05,West,262,12.0,21.0,79,0.00,,,0.00,WUHU216DAVISVP2,2013-02-12 06:40:00,
2013-02-12 01:45:00,30.3,24.9,30.05,West,269,13.0,20.0,80,0.00,,,0.00,WUHU216DAVISVP2,2013-02-12 06:45:00,
2013-02-12 01:50:00,30.2,24.8,30.05,WSW,245,13.0,20.0,80,0.00,,,0.00,WUHU216DAVISVP2,2013-02-12 06:50:00,
2013-02-12 01:55:00,30.2,24.8,30.05,WSW,257,8.0,20.0,80,0.00,,,0.00,WUHU216DAVISVP2,2013-02-12 06:55:00,
2013-02-12 02:00:00,30.2,24.8,30.05,West,278,10.0,19.0,80,0.00,,,0.00,WUHU216DAVISVP2,2013-02-12 07:00:00,
2013-02-12 02:05:00,30.2,24.8,30.05,West,259,11.0,19.0,80,0.00,,,0.00,WUHU216DAVISVP2,2013-02-12 07:05:00,
2013-02-12 02:10:00,30.1,24.4,30.05,West,262,15.0,20.0,79,0.00,,,0.00,WUHU216DAVISVP2,2013-02-12 07:10:00,
2013-02-12 02:15:00,30.1,24.7,30.06,West,274,10.0,20.0,80,0.00,,,0.00,WUHU216DAVISVP2,2013-02-12 07:15:00,
2013-02-12 02:20:00,30.1,24.7,30.06,West,260,14.0,20.0,80,0.00,,,0.00,WUHU216DAVISVP2,2013-02-12 07:20:00,
2013-02-12 02:25:00,30.0,24.6,30.06,West,262,14.0,20.0,80,0.00,,,0.00,WUHU216DAVISVP2,2013-02-12 07:25:00,
2013-02-12 02:30:00,30.1,24.7,30.07,West,277,8.0,20.0,80,0.00,,,0.00,WUHU216DAVISVP2,2013-02-12 07:30:00,
2013-02-12 02:35:00,30.1,24.7,30.07,West,266,9.0,20.0,80,0.00,,,0.00,WUHU216DAVISVP2,2013-02-12 07:35:00,
2013-02-12 02:40:00,30.1,24.7,30.07,West,275,10.0,18.0,80,0.00,,,0.00,WUHU216DAVISVP2,2013-02-12 07:40:00,
2013-02-12 02:45:00,30.1,24.7,30.07,WNW,287,8.0,18.0,80,0.00,,,0.00,WUHU216DAVISVP2,2013-02-12 07:45:00,
2013-02-12 02:50:00,30.1,24.7,30.07,West,267,11.0,18.0,80,0.00,,,0.00,WUHU216DAVISVP2,2013-02-12 07:50:00,
2013-02-12 02:55:00,30.1,24.7,30.08,WSW,257,14.0,18.0,80,0.00,,,0.00,WUHU216DAVISVP2,2013-02-12 07:55:00,
2013-02-12 03:00:00,30.0,24.6,30.07,WSW,246,6.0,20.0,80,0.00,,,0.00,WUHU216DAVISVP2,2013-02-12 08:00:00,
2013-02-12 03:05:00,30.0,24.6,30.08,West,273,9.0,20.0,80,0.00,,,0.00,WUHU216DAVISVP2,2013-02-12 08:05:00,
2013-02-12 03:10:00,29.9,24.8,30.08,West,267,10.0,19.0,81,0.00,,,0.00,WUHU216DAVISVP2,2013-02-12 08:10:00,
2013-02-12 03:15:00,29.9,24.8,30.08,West,264,5.0,17.0,81,0.00,,,0.00,WUHU216DAVISVP2,2013-02-12 08:15:00,
2013-02-12 03:20:00,29.8,24.4,30.08,WNW,302,3.0,17.0,80,0.00,,,0.00,WUHU216DAVISVP2,2013-02-12 08:20:00,
2013-02-12 03:25:00,29.8,24.4,30.08,WNW,283,10.0,17.0,80,0.00,,,0.00,WUHU216DAVISVP2,2013-02-12 08:25:00,
2013-02-12 03:30:00,29.8,24.4,30.08,West,271,15.0,17.0,80,0.00,,,0.00,WUHU216DAVISVP2,2013-02-12 08:30:00,
2013-02-12 03:35:00,29.8,24.7,30.08,West,267,8.0,17.0,81,0.00,,,0.00,WUHU216DAVISVP2,2013-02-12 08:35:00,
2013-02-12 03:40:00,29.8,24.7,30.08,West,263,9.0,17.0,81,0.00,,,0.00,WUHU216DAVISVP2,2013-02-12 08:40:00,
2013-02-12 03:45:00,29.8,24.7,30.08,West,269,9.0,17.0,81,0.00,,,0.00,WUHU216DAVISVP2,2013-02-12 08:45:00,
2013-02-12 03:50:00,29.8,24.7,30.08,West,266,8.0,17.0,81,0.00,,,0.00,WUHU216DAVISVP2,2013-02-12 08:50:00,
2013-02-12 03:55:00,29.7,24.6,30.08,WNW,288,6.0,17.0,81,0.00,,,0.00,WUHU216DAVISVP2,2013-02-12 08:55:00,
2013-02-12 04:00:00,29.7,24.9,30.08,WNW,285,2.0,13.0,82,0.00,,,0.00,WUHU216DAVISVP2,2013-02-12 09:00:00,
2013-02-12 04:05:00,29.7,24.9,30.08,West,267,6.0,12.0,82,0.00,,,0.00,WUHU216DAVISVP2,2013-02-12 09:05:00,
2013-02-12 04:10:00,29.6,24.8,30.09,West,277,2.0,11.0,82,0.00,,,0.00,WUHU216DAVISVP2,2013-02-12 09:10:00,
2013-02-12 04:15:00,29.6,24.8,30.09,West,276,4.0,9.0,82,0.00,,,0.00,WUHU216DAVISVP2,2013-02-12 09:15:00,
2013-02-12 04:20:00,29.6,24.8,30.09,West,260,9.0,14.0,82,0.00,,,0.00,WUHU216DAVISVP2,2013-02-12 09:20:00,
2013-02-12 04:25:00,29.6,24.8,30.09,West,264,6.0,14.0,82,0.00,,,0.00,WUHU216DAVISVP2,2013-02-12 09:25:00,
2013-02-12 04:30:00,29.5,24.7,30.09,West,270,8.0,14.0,82,0.00,,,0.00,WUHU216DAVISVP2,2013-02-12 09:30:00,
2013-02-12 04:35:00,29.5,24.7,30.09,WNW,285,6.0,14.0,82,0.00,,,0.00,WUHU216DAVISVP2,2013-02-12 09:35:00,
2013-02-12 04:40:00,29.6,25.1,30.09,WNW,283,2.0,12.0,83,0.00,,,0.00,WUHU216DAVISVP2,2013-02-12 09:40:00,
2013-02-12 04:45:00,29.5,25.0,30.09,West,276,5.0,12.0,83,0.00,,,0.00,WUHU216DAVISVP2,2013-02-12 09:45:00,
2013-02-12 04:50:00,29.5,25.0,30.09,West,280,6.0,12.0,83,0.00,,,0.00,WUHU216DAVISVP2,2013-02-12 09:50:00,
2013-02-12 04:55:00,29.5,25.0,30.10,West,262,6.0,12.0,83,0.00,,,0.00,WUHU216DAVISVP2,2013-02-12 09:55:00,
2013-02-12 05:00:00,29.5,25.0,30.10,West,273,4.0,12.0,83,0.00,,,0.00,WUHU216DAVISVP2,2013-02-12 10:00:00,
2013-02-12 05:05:00,29.5,25.0,30.09,West,262,3.0,12.0,83,0.00,,,0.00,WUHU216DAVISVP2,2013-02-12 10:05:00,
2013-02-12 05:10:00,29.4,24.9,30.10,WSW,257,9.0,10.0,83,0.00,,,0.00,WUHU216DAVISVP2,2013-02-12 10:10:00,
2013-02-12 05:15:00,29.4,24.9,30.10,West,266,7.0,11.0,83,0.00,,,0.00,WUHU216DAVISVP2,2013-02-12 10:15:00,
2013-02-12 05:20:00,29.4,24.9,30.10,WSW,256,11.0,14.0,83,0.00,,,0.00,WUHU216DAVISVP2,2013-02-12 10:20:00,
2013-02-12 05:25:00,29.3,25.0,30.10,West,259,7.0,14.0,84,0.00,,,0.00,WUHU216DAVISVP2,2013-02-12 10:25:00,
2013-02-12 05:30:00,29.3,25.0,30.11,West,269,10.0,14.0,84,0.00,,,0.00,WUHU216DAVISVP2,2013-02-12 10:30:00,
2013-02-12 05:35:00,29.2,24.9,30.11,West,264,6.0,14.0,84,0.00,,,0.00,WUHU216DAVISVP2,2013-02-12 10:35:00,
2013-02-12 05:40:00,29.2,24.9,30.11,West,268,8.0,13.0,84,0.00,,,0.00,WUHU216DAVISVP2,2013-02-12 10:40:00,
2013-02-12 05:45:00,29.2,24.9,30.11,West,263,10.0,13.0,84,0.00,,,0.00,WUHU216DAVISVP2,2013-02-12 10:45:00,
2013-02-12 05:50:00,29.1,24.8,30.11,West,262,10.0,13.0,84,0.00,,,0.00,WUHU216DAVISVP2,2013-02-12 10:50:00,
2013-02-12 05:55:00,29.1,24.8,30.10,WNW,284,5.0,13.0,84,0.00,,,0.00,WUHU216DAVISVP2,2013-02-12 10:55:00,
2013-02-12 06:00:00,29.0,24.8,30.10,West,266,10.0,12.0,84,0.00,,,0.00,WUHU216DAVISVP2,2013-02-12 11:00:00,
2013-02-12 06:05:00,28.9,24.7,30.11,West,270,9.0,16.0,84,0.00,,,0.00,WUHU216DAVISVP2,2013-02-12 11:05:00,
2013-02-12 06:10:00,28.8,24.3,30.11,West,264,7.0,16.0,83,0.00,,,0.00,WUHU216DAVISVP2,2013-02-12 11:10:00,
2013-02-12 06:15:00,28.5,24.0,30.11,West,277,10.0,16.0,83,0.00,,,0.00,WUHU216DAVISVP2,2013-02-12 11:15:00,
2013-02-12 06:20:00,28.3,23.5,30.11,West,263,10.0,16.0,82,0.00,,,0.00,WUHU216DAVISVP2,2013-02-12 11:20:00,
2013-02-12 06:25:00,28.1,23.3,30.11,WSW,255,12.0,16.0,82,0.00,,,0.00,WUHU216DAVISVP2,2013-02-12 11:25:00,
2013-02-12 06:30:00,28.0,23.5,30.12,West,263,12.0,16.0,83,0.00,,,0.00,WUHU216DAVISVP2,2013-02-12 11:30:00,
2013-02-12 06:35:00,27.9,23.7,30.12,WSW,257,12.0,14.0,84,0.00,,,0.00,WUHU216DAVISVP2,2013-02-12 11:35:00,
2013-02-12 06:40:00,27.7,22.9,30.11,West,266,11.0,15.0,82,0.00,,,0.00,WUHU216DAVISVP2,2013-02-12 11:40:00,
2013-02-12 06:45:00,27.6,22.8,30.11,West,262,9.0,15.0,82,0.00,,,0.00,WUHU216DAVISVP2,2013-02-12 11:45:00,
2013-02-12 06:50:00,27.5,22.7,30.11,West,271,5.0,15.0,82,0.00,,,0.00,WUHU216DAVISVP2,2013-02-12 11:50:00,
2013-02-12 06:55:00,27.5,22.7,30.11,WNW,283,3.0,15.0,82,0.00,,,0.00,WUHU216DAVISVP2,2013-02-12 11:55:00,
2013-02-12 07:00:00,27.5,23.0,30.11,West,280,5.0,15.0,83,0.00,,,0.00,WUHU216DAVISVP2,2013-02-12 12:00:00,
2013-02-12 07:05:00,27.5,23.0,30.12,West,266,5.0,13.0,83,0.00,,,0.00,WUHU216DAVISVP2,2013-02-12 12:05:00,
2013-02-12 07:10:00,27.6,22.8,30.12,West,263,7.0,10.0,82,0.00,,,0.00,WUHU216DAVISVP2,2013-02-12 12:10:00,
2013-02-12 07:15:00,27.6,23.1,30.12,West,270,6.0,11.0,83,0.00,,,0.00,WUHU216DAVISVP2,2013-02-12 12:15:00,
2013-02-12 07:20:00,27.6,23.1,30.11,West,267,2.0,11.0,83,0.00,,,0.00,WUHU216DAVISVP2,2013-02-12 12:20:00,
2013-02-12 07:25:00,27.5,22.7,30.12,West,266,9.0,11.0,82,0.00,,,0.00,WUHU216DAVISVP2,2013-02-12 12:25:00,
2013-02-12 07:30:00,27.5,23.0,30.12,West,262,7.0,11.0,83,0.00,,,0.00,WUHU216DAVISVP2,2013-02-12 12:30:00,
2013-02-12 07:35:00,27.6,23.1,30.12,West,266,6.0,13.0,83,0.00,,,0.00,WUHU216DAVISVP2,2013-02-12 12:35:00,
2013-02-12 07:40:00,27.6,23.1,30.12,West,274,4.0,13.0,83,0.00,,,0.00,WUHU216DAVISVP2,2013-02-12 12:40:00,
2013-02-12 07:45:00,27.6,23.1,30.12,WSW,250,10.0,13.0,83,0.00,,,0.00,WUHU216DAVISVP2,2013-02-12 12:45:00,
2013-02-12 07:50:00,27.6,23.1,30.12,West,269,6.0,13.0,83,0.00,,,0.00,WUHU216DAVISVP2,2013-02-12 12:50:00,
2013-02-12 07:55:00,27.6,23.1,30.12,West,264,8.0,13.0,83,0.00,,,0.00,WUHU216DAVISVP2,2013-02-12 12:55:00,
2013-02-12 08:00:00,27.5,22.7,30.12,West,270,6.0,13.0,82,0.00,,,0.00,WUHU216DAVISVP2,2013-02-12 13:00:00,
2013-02-12 08:05:00,27.6,23.1,30.12,West,281,4.0,13.0,83,0.00,,,0.00,WUHU216DAVISVP2,2013-02-12 13:05:00,
2013-02-12 08:10:00,27.6,23.1,30.13,West,268,4.0,12.0,83,0.00,,,0.00,WUHU216DAVISVP2,2013-02-12 13:10:00,
2013-02-12 08:15:00,27.7,23.2,30.13,WNW,284,6.0,8.0,83,0.00,,,0.00,WUHU216DAVISVP2,2013-02-12 13:15:00,
2013-02-12 08:20:00,27.7,23.2,30.13,WSW,258,6.0,8.0,83,0.00,,,0.00,WUHU216DAVISVP2,2013-02-12 13:20:00,
2013-02-12 08:25:00,27.7,23.2,30.13,WSW,258,11.0,12.0,83,0.00,,,0.00,WUHU216DAVISVP2,2013-02-12 13:25:00,
2013-02-12 08:30:00,27.5,22.7,30.13,SW,231,9.0,12.0,82,0.00,,,0.00,WUHU216DAVISVP2,2013-02-12 13:30:00,
2013-02-12 08:35:00,27.4,22.9,30.13,WSW,256,8.0,12.0,83,0.00,,,0.00,WUHU216DAVISVP2,2013-02-12 13:35:00,
2013-02-12 08:40:00,27.4,22.9,30.13,West,263,6.0,12.0,83,0.00,,,0.00,WUHU216DAVISVP2,2013-02-12 13:40:00,
2013-02-12 08:45:00,27.4,22.9,30.13,WSW,252,9.0,11.0,83,0.00,,,0.00,WUHU216DAVISVP2,2013-02-12 13:45:00,
2013-02-12 08:50:00,27.4,22.9,30.13,WSW,252,7.0,11.0,83,0.00,,,0.00,WUHU216DAVISVP2,2013-02-12 13:50:00,
2013-02-12 08:56:00,27.4,22.6,30.13,West,266,7.0,11.0,82,0.00,,,0.00,WUHU216DAVISVP2,2013-02-12 13:56:00,
2013-02-12 09:01:00,27.3,22.5,30.13,WSW,243,5.0,10.0,82,0.00,,,0.00,WUHU216DAVISVP2,2013-02-12 14:01:00,
2013-02-12 09:06:00,27.4,22.6,30.14,WSW,257,7.0,10.0,82,0.00,,,0.00,WUHU216DAVISVP2,2013-02-12 14:06:00,
2013-02-12 09:10:00,27.3,22.5,30.14,West,259,8.0,10.0,82,0.00,,,0.00,WUHU216DAVISVP2,2013-02-12 14:10:00,
2013-02-12 09:15:00,27.6,22.8,30.14,WSW,258,8.0,11.0,82,0.00,,,0.00,WUHU216DAVISVP2,2013-02-12 14:15:00,
2013-02-12 09:20:00,27.9,22.8,30.14,West,269,10.0,11.0,81,0.00,,,0.00,WUHU216DAVISVP2,2013-02-12 14:20:00,
2013-02-12 09:25:00,27.8,22.7,30.14,WSW,257,3.0,11.0,81,0.00,,,0.00,WUHU216DAVISVP2,2013-02-12 14:25:00,
2013-02-12 09:31:00,27.9,22.8,30.15,West,280,8.0,11.0,81,0.00,,,0.00,WUHU216DAVISVP2,2013-02-12 14:31:00,
2013-02-12 09:36:00,28.0,23.2,30.15,WSW,245,11.0,13.0,82,0.00,,,0.00,WUHU216DAVISVP2,2013-02-12 14:36:00,
2013-02-12 09:41:00,28.2,23.4,30.14,West,260,5.0,13.0,82,0.00,,,0.00,WUHU216DAVISVP2,2013-02-12 14:41:00,
2013-02-12 09:46:00,28.4,23.6,30.14,West,273,4.0,12.0,82,0.00,,,0.00,WUHU216DAVISVP2,2013-02-12 14:46:00,
2013-02-12 09:51:00,28.5,23.4,30.13,West,280,3.0,12.0,81,0.00,,,0.00,WUHU216DAVISVP2,2013-02-12 14:51:00,
2013-02-12 09:56:00,28.6,23.8,30.13,WSW,256,8.0,11.0,82,0.00,,,0.00,WUHU216DAVISVP2,2013-02-12 14:56:00,
2013-02-12 10:01:00,28.6,23.5,30.13,SW,228,9.0,12.0,81,0.00,,,0.00,WUHU216DAVISVP2,2013-02-12 15:01:00,
2013-02-12 10:06:00,28.7,23.6,30.14,West,268,5.0,12.0,81,0.00,,,0.00,WUHU216DAVISVP2,2013-02-12 15:06:00,
2013-02-12 10:11:00,28.9,23.8,30.13,SSW,203,7.0,11.0,81,0.00,,,0.00,WUHU216DAVISVP2,2013-02-12 15:11:00,
2013-02-12 10:16:00,29.0,23.9,30.14,WSW,238,7.0,11.0,81,0.00,,,0.00,WUHU216DAVISVP2,2013-02-12 15:16:00,
2013-02-12 10:21:00,29.1,24.3,30.13,SW,228,8.0,11.0,82,0.00,,,0.00,WUHU216DAVISVP2,2013-02-12 15:21:00,
2013-02-12 10:26:00,29.2,24.1,30.13,SW,216,8.0,11.0,81,0.00,,,0.00,WUHU216DAVISVP2,2013-02-12 15:26:00,
2013-02-12 10:31:00,29.3,24.2,30.13,SW,233,6.0,12.0,81,0.00,,,0.00,WUHU216DAVISVP2,2013-02-12 15:31:00,
2013-02-12 10:36:00,29.7,24.6,30.13,SSW,210,9.0,12.0,81,0.00,,,0.00,WUHU216DAVISVP2,2013-02-12 15:36:00,
2013-02-12 10:41:00,29.9,24.5,30.13,SW,215,8.0,11.0,80,0.00,,,0.00,WUHU216DAVISVP2,2013-02-12 15:41:00,
2013-02-12 10:46:00,30.0,24.6,30.13,WSW,253,8.0,11.0,80,0.00,,,0.00,WUHU216DAVISVP2,2013-02-12 15:46:00,
2013-02-12 10:51:00,29.9,24.2,30.13,WSW,256,8.0,11.0,79,0.00,,,0.00,WUHU216DAVISVP2,2013-02-12 15:51:00,
2013-02-12 10:56:00,29.6,24.5,30.13,SW,236,8.0,11.0,81,0.00,,,0.00,WUHU216DAVISVP2,2013-02-12 15:56:00,
2013-02-12 11:01:00,29.9,25.1,30.13,SW,224,8.0,11.0,82,0.00,,,0.00,WUHU216DAVISVP2,2013-02-12 16:01:00,
2013-02-12 11:06:00,29.9,24.5,30.13,WSW,242,7.0,12.0,80,0.00,,,0.00,WUHU216DAVISVP2,2013-02-12 16:06:00,
2013-02-12 11:11:00,29.7,24.6,30.13,WSW,246,4.0,12.0,81,0.00,,,0.00,WUHU216DAVISVP2,2013-02-12 16:11:00,
2013-02-12 11:16:00,29.9,24.8,30.13,SW,221,11.0,11.0,81,0.00,,,0.00,WUHU216DAVISVP2,2013-02-12 16:16:00,
2013-02-12 11:21:00,30.2,25.1,30.13,WSW,257,6.0,11.0,81,0.00,,,0.00,WUHU216DAVISVP2,2013-02-12 16:21:00,
2013-02-12 11:26:00,30.3,25.2,30.13,SW,232,11.0,13.0,81,0.00,,,0.00,WUHU216DAVISVP2,2013-02-12 16:26:00,
2013-02-12 11:31:00,30.6,25.5,30.13,SW,235,9.0,14.0,81,0.00,,,0.00,WUHU216DAVISVP2,2013-02-12 16:31:00,
2013-02-12 11:36:00,30.8,25.7,30.13,WSW,253,8.0,14.0,81,0.00,,,0.00,WUHU216DAVISVP2,2013-02-12 16:36:00,
2013-02-12 11:41:00,30.8,25.7,30.13,WSW,243,12.0,14.0,81,0.00,,,0.00,WUHU216DAVISVP2,2013-02-12 16:41:00,
2013-02-12 11:46:00,30.8,25.9,30.13,SW,226,10.0,15.0,82,0.00,,,0.00,WUHU216DAVISVP2,2013-02-12 16:46:00,
2013-02-12 11:51:00,30.8,25.4,30.12,WSW,248,8.0,15.0,80,0.00,,,0.00,WUHU216DAVISVP2,2013-02-12 16:51:00,
2013-02-12 11:56:00,31.2,26.6,30.13,West,259,11.0,14.0,83,0.00,,,0.00,WUHU216DAVISVP2,2013-02-12 16:56:00,
2013-02-12 12:01:00,30.9,25.5,30.13,SW,224,13.0,16.0,80,0.00,,,0.00,WUHU216DAVISVP2,2013-02-12 17:01:00,
2013-02-12 12:06:00,30.6,25.2,30.13,WSW,248,8.0,16.0,80,0.00,,,0.00,WUHU216DAVISVP2,2013-02-12 17:06:00,
2013-02-12 12:11:00,30.6,25.2,30.12,SW,225,7.0,15.0,80,0.00,,,0.00,WUHU216DAVISVP2,2013-02-12 17:11:00,
2013-02-12 12:16:00,30.5,24.8,30.11,WNW,290,3.0,15.0,79,0.00,,,0.00,WUHU216DAVISVP2,2013-02-12 17:16:00,
2013-02-12 12:21:00,30.4,25.3,30.11,SW,228,11.0,13.0,81,0.00,,,0.00,WUHU216DAVISVP2,2013-02-12 17:21:00,
2013-02-12 12:26:00,30.6,25.5,30.10,WSW,248,8.0,13.0,81,0.00,,,0.00,WUHU216DAVISVP2,2013-02-12 17:26:00,
2013-02-12 12:31:00,30.7,25.3,30.10,SW,226,8.0,13.0,80,0.00,,,0.00,WUHU216DAVISVP2,2013-02-12 17:31:00,
2013-02-12 12:36:00,31.3,26.7,30.10,SW,226,14.0,14.0,83,0.00,,,0.00,WUHU216DAVISVP2,2013-02-12 17:36:00,
2013-02-12 12:41:00,31.3,25.8,30.09,SW,224,9.0,14.0,80,0.00,,,0.00,WUHU216DAVISVP2,2013-02-12 17:41:00,
2013-02-12 12:46:00,31.7,26.8,30.08,SW,233,9.0,14.0,82,0.00,,,0.00,WUHU216DAVISVP2,2013-02-12 17:46:00,
2013-02-12 12:51:00,31.6,25.8,30.08,West,265,8.0,13.0,79,0.00,,,0.00,WUHU216DAVISVP2,2013-02-12 17:51:00,
2013-02-12 12:56:00,31.2,25.2,30.07,WSW,242,4.0,12.0,78,0.00,,,0.00,WUHU216DAVISVP2,2013-02-12 17:56:00,
2013-02-12 13:01:00,31.4,25.7,30.07,SW,224,5.0,11.0,79,0.00,,,0.00,WUHU216DAVISVP2,2013-02-12 18:01:00,
2013-02-12 13:06:00,31.7,25.9,30.06,SW,225,12.0,12.0,79,0.00,,,0.00,WUHU216DAVISVP2,2013-02-12 18:06:00,
2013-02-12 13:11:00,31.8,26.0,30.06,WSW,238,6.0,12.0,79,0.00,,,0.00,WUHU216DAVISVP2,2013-02-12 18:11:00,
2013-02-12 13:16:00,31.7,25.3,30.05,SW,224,3.0,12.0,77,0.00,,,0.00,WUHU216DAVISVP2,2013-02-12 18:16:00,
2013-02-12 13:21:00,31.8,26.0,30.05,WSW,245,10.0,12.0,79,0.00,,,0.00,WUHU216DAVISVP2,2013-02-12 18:21:00,
2013-02-12 13:26:00,32.0,26.2,30.05,SW,223,8.0,12.0,79,0.00,,,0.00,WUHU216DAVISVP2,2013-02-12 18:26:00,
2013-02-12 13:31:00,32.5,26.4,30.05,WSW,238,3.0,12.0,78,0.00,,,0.00,WUHU216DAVISVP2,2013-02-12 18:31:00,
2013-02-12 13:36:00,32.7,26.6,30.05,SW,214,9.0,13.0,78,0.00,,,0.00,WUHU216DAVISVP2,2013-02-12 18:36:00,
2013-02-12 13:41:00,33.0,26.9,30.05,SW,235,15.0,16.0,78,0.00,,,0.00,WUHU216DAVISVP2,2013-02-12 18:41:00,
2013-02-12 13:46:00,32.9,26.5,30.05,WSW,238,8.0,16.0,77,0.00,,,0.00,WUHU216DAVISVP2,2013-02-12 18:46:00,
2013-02-12 13:51:00,33.0,26.6,30.05,WSW,238,6.0,15.0,77,0.00,,,0.00,WUHU216DAVISVP2,2013-02-12 18:51:00,
2013-02-12 13:56:00,33.1,26.7,30.05,WSW,249,11.0,19.0,77,0.00,,,0.00,WUHU216DAVISVP2,2013-02-12 18:56:00,
2013-02-12 14:01:00,33.0,26.9,30.05,SW,235,11.0,19.0,78,0.00,,,0.00,WUHU216DAVISVP2,2013-02-12 19:01:00,
2013-02-12 14:06:00,32.8,26.4,30.05,West,270,6.0,19.0,77,0.00,,,0.00,WUHU216DAVISVP2,2013-02-12 19:06:00,
2013-02-12 14:11:00,32.5,26.4,30.05,West,280,6.0,19.0,78,0.00,,,0.00,WUHU216DAVISVP2,2013-02-12 19:11:00,
2013-02-12 14:16:00,32.8,27.0,30.05,WSW,250,9.0,16.0,79,0.00,,,0.00,WUHU216DAVISVP2,2013-02-12 19:16:00,
2013-02-12 14:21:00,33.0,27.2,30.05,WSW,249,12.0,16.0,79,0.00,,,0.00,WUHU216DAVISVP2,2013-02-12 19:21:00,
2013-02-12 14:26:00,33.6,27.8,30.05,SW,235,10.0,15.0,79,0.00,,,0.00,WUHU216DAVISVP2,2013-02-12 19:26:00,
2013-02-12 14:31:00,33.5,27.4,30.04,WSW,245,7.0,15.0,78,0.00,,,0.00,WUHU216DAVISVP2,2013-02-12 19:31:00,
2013-02-12 14:36:00,33.7,27.9,30.04,SW,228,11.0,14.0,79,0.00,,,0.00,WUHU216DAVISVP2,2013-02-12 19:36:00,
2013-02-12 14:41:00,33.8,28.0,30.05,SW,221,10.0,14.0,79,0.00,,,0.00,WUHU216DAVISVP2,2013-02-12 19:41:00,
2013-02-12 14:46:00,33.6,27.2,30.05,WSW,240,10.0,14.0,77,0.00,,,0.00,WUHU216DAVISVP2,2013-02-12 19:46:00,
2013-02-12 14:51:00,33.5,27.7,30.06,WSW,245,11.0,15.0,79,0.00,,,0.00,WUHU216DAVISVP2,2013-02-12 19:51:00,
2013-02-12 14:56:00,33.2,27.4,30.06,SW,236,16.0,17.0,79,0.00,,,0.00,WUHU216DAVISVP2,2013-02-12 19:56:00,
2013-02-12 15:01:00,33.0,26.9,30.06,WSW,240,11.0,17.0,78,0.00,,,0.00,WUHU216DAVISVP2,2013-02-12 20:01:00,
2013-02-12 15:06:00,32.9,27.4,30.06,WSW,246,15.0,17.0,80,0.00,,,0.00,WUHU216DAVISVP2,2013-02-12 20:06:00,
2013-02-12 15:11:00,32.7,26.9,30.06,WSW,245,14.0,17.0,79,0.00,,,0.00,WUHU216DAVISVP2,2013-02-12 20:11:00,
2013-02-12 15:16:00,32.5,27.0,30.06,WSW,238,14.0,16.0,80,0.00,,,0.00,WUHU216DAVISVP2,2013-02-12 20:16:00,
2013-02-12 15:21:00,32.5,27.3,30.07,WSW,238,15.0,16.0,81,0.00,,,0.00,WUHU216DAVISVP2,2013-02-12 20:21:00,
2013-02-12 15:26:00,32.3,27.1,30.07,SW,215,12.0,16.0,81,0.00,,,0.00,WUHU216DAVISVP2,2013-02-12 20:26:00,
2013-02-12 15:31:00,32.2,27.3,30.07,SW,231,12.0,16.0,82,0.00,,,0.00,WUHU216DAVISVP2,2013-02-12 20:31:00,
2013-02-12 15:36:00,32.2,27.3,30.07,SW,235,13.0,17.0,82,0.00,,,0.00,WUHU216DAVISVP2,2013-02-12 20:36:00,
2013-02-12 15:41:00,31.8,26.9,30.07,SW,232,13.0,17.0,82,0.00,,,0.00,WUHU216DAVISVP2,2013-02-12 20:41:00,
2013-02-12 15:46:00,31.6,26.7,30.07,SW,235,13.0,18.0,82,0.00,,,0.00,WUHU216DAVISVP2,2013-02-12 20:46:00,
2013-02-12 15:51:00,31.4,26.5,30.06,SW,222,16.0,18.0,82,0.00,,,0.00,WUHU216DAVISVP2,2013-02-12 20:51:00,
2013-02-12 15:56:00,31.4,26.5,30.07,WSW,240,14.0,18.0,82,0.00,,,0.00,WUHU216DAVISVP2,2013-02-12 20:56:00,
2013-02-12 16:01:00,31.4,26.5,30.07,SW,233,13.0,18.0,82,0.00,,,0.00,WUHU216DAVISVP2,2013-02-12 21:01:00,
2013-02-12 16:06:00,31.4,26.8,30.07,SW,235,11.0,18.0,83,0.00,,,0.00,WUHU216DAVISVP2,2013-02-12 21:06:00,
2013-02-12 16:11:00,31.4,26.8,30.07,West,263,13.0,16.0,83,0.00,,,0.00,WUHU216DAVISVP2,2013-02-12 21:11:00,
2013-02-12 16:16:00,31.3,26.7,30.06,WSW,238,11.0,16.0,83,0.00,,,0.00,WUHU216DAVISVP2,2013-02-12 21:16:00,
2013-02-12 16:21:00,31.2,26.6,30.06,SW,229,13.0,16.0,83,0.00,,,0.00,WUHU216DAVISVP2,2013-02-12 21:21:00,
2013-02-12 16:26:00,31.0,26.1,30.06,WSW,242,13.0,17.0,82,0.00,,,0.00,WUHU216DAVISVP2,2013-02-12 21:26:00,
2013-02-12 16:31:00,30.9,26.3,30.06,SW,231,10.0,17.0,83,0.00,,,0.00,WUHU216DAVISVP2,2013-02-12 21:31:00,
2013-02-12 16:36:00,30.8,26.2,30.06,WSW,243,15.0,16.0,83,0.00,,,0.00,WUHU216DAVISVP2,2013-02-12 21:36:00,
2013-02-12 16:41:00,30.7,26.4,30.06,SW,235,12.0,16.0,84,0.00,,,0.00,WUHU216DAVISVP2,2013-02-12 21:41:00,
2013-02-12 16:46:00,30.6,26.3,30.06,WSW,246,12.0,16.0,84,0.00,,,0.00,WUHU216DAVISVP2,2013-02-12 21:46:00,
2013-02-12 16:51:00,30.6,26.3,30.06,WSW,250,12.0,16.0,84,0.00,,,0.00,WUHU216DAVISVP2,2013-02-12 21:51:00,
2013-02-12 16:56:00,30.4,26.1,30.06,WSW,252,13.0,16.0,84,0.00,,,0.00,WUHU216DAVISVP2,2013-02-12 21:56:00,
2013-02-12 17:01:00,30.4,26.4,30.06,WSW,249,10.0,15.0,85,0.00,,,0.00,WUHU216DAVISVP2,2013-02-12 22:01:00,
2013-02-12 17:06:00,30.3,26.3,30.05,WSW,245,13.0,15.0,85,0.00,,,0.00,WUHU216DAVISVP2,2013-02-12 22:06:00,
2013-02-12 17:11:00,30.1,26.1,30.05,WSW,248,13.0,17.0,85,0.00,,,0.00,WUHU216DAVISVP2,2013-02-12 22:11:00,
2013-02-12 17:16:00,30.0,25.7,30.05,SW,232,10.0,17.0,84,0.00,,,0.00,WUHU216DAVISVP2,2013-02-12 22:16:00,
2013-02-12 17:21:00,29.9,25.9,30.05,WSW,246,7.0,16.0,85,0.00,,,0.00,WUHU216DAVISVP2,2013-02-12 22:21:00,
2013-02-12 17:26:00,29.9,26.2,30.05,SW,228,13.0,16.0,86,0.00,,,0.00,WUHU216DAVISVP2,2013-02-12 22:26:00,
2013-02-12 17:31:00,29.7,25.7,30.04,SW,236,12.0,18.0,85,0.00,,,0.00,WUHU216DAVISVP2,2013-02-12 22:31:00,
2013-02-12 17:36:00,29.6,25.6,30.05,SW,228,12.0,18.0,85,0.00,,,0.00,WUHU216DAVISVP2,2013-02-12 22:36:00,
2013-02-12 17:41:00,29.5,25.5,30.05,WSW,240,13.0,17.0,85,0.00,,,0.00,WUHU216DAVISVP2,2013-02-12 22:41:00,
2013-02-12 17:46:00,29.5,25.5,30.05,WSW,242,11.0,17.0,85,0.00,,,0.00,WUHU216DAVISVP2,2013-02-12 22:46:00,
2013-02-12 17:51:00,29.4,25.4,30.04,SW,235,14.0,17.0,85,0.00,,,0.00,WUHU216DAVISVP2,2013-02-12 22:51:00,
2013-02-12 17:56:00,29.4,25.4,30.04,West,262,12.0,17.0,85,0.00,,,0.00,WUHU216DAVISVP2,2013-02-12 22:56:00,
2013-02-12 18:01:00,29.4,25.4,30.04,WSW,243,13.0,16.0,85,0.00,,,0.00,WUHU216DAVISVP2,2013-02-12 23:01:00,
2013-02-12 18:06:00,29.4,25.1,30.04,WSW,245,14.0,17.0,84,0.00,,,0.00,WUHU216DAVISVP2,2013-02-12 23:06:00,
2013-02-12 18:11:00,29.4,25.4,30.03,WSW,258,9.0,17.0,85,0.00,,,0.00,WUHU216DAVISVP2,2013-02-12 23:11:00,
2013-02-12 18:16:00,29.4,25.4,30.03,WSW,252,9.0,16.0,85,0.00,,,0.00,WUHU216DAVISVP2,2013-02-12 23:16:00,
2013-02-12 18:21:00,29.4,25.4,30.03,West,268,5.0,16.0,85,0.00,,,0.00,WUHU216DAVISVP2,2013-02-12 23:21:00,
2013-02-12 18:26:00,29.5,25.5,30.04,WSW,252,8.0,13.0,85,0.00,,,0.00,WUHU216DAVISVP2,2013-02-12 23:26:00,
2013-02-12 18:31:00,29.5,25.5,30.04,West,259,8.0,13.0,85,0.00,,,0.00,WUHU216DAVISVP2,2013-02-12 23:31:00,
2013-02-12 18:36:00,29.5,25.8,30.04,WSW,258,10.0,12.0,86,0.00,,,0.00,WUHU216DAVISVP2,2013-02-12 23:36:00,
2013-02-12 18:41:00,29.5,25.8,30.05,WSW,253,8.0,12.0,86,0.00,,,0.00,WUHU216DAVISVP2,2013-02-12 23:41:00,
2013-02-12 18:46:00,29.6,25.9,30.04,West,260,12.0,12.0,86,0.00,,,0.00,WUHU216DAVISVP2,2013-02-12 23:46:00,
2013-02-12 18:51:00,29.4,25.4,30.04,WSW,253,10.0,12.0,85,0.00,,,0.00,WUHU216DAVISVP2,2013-02-12 23:51:00,
2013-02-12 18:56:00,29.3,25.6,30.04,WSW,253,10.0,14.0,86,0.00,,,0.00,WUHU216DAVISVP2,2013-02-12 23:56:00,
2013-02-12 19:01:00,29.2,25.5,30.03,WSW,242,12.0,14.0,86,0.00,,,0.00,WUHU216DAVISVP2,2013-02-13 00:01:00,
2013-02-12 19:06:00,29.2,25.5,30.03,WSW,238,11.0,14.0,86,0.00,,,0.00,WUHU216DAVISVP2,2013-02-13 00:06:00,
2013-02-12 19:11:00,29.1,25.4,30.03,SW,228,9.0,14.0,86,0.00,,,0.00,WUHU216DAVISVP2,2013-02-13 00:11:00,
2013-02-12 19:16:00,29.0,25.3,30.03,SW,235,10.0,13.0,86,0.00,,,0.00,WUHU216DAVISVP2,2013-02-13 00:16:00,
2013-02-12 19:21:00,29.0,25.3,30.03,WSW,256,7.0,13.0,86,0.00,,,0.00,WUHU216DAVISVP2,2013-02-13 00:21:00,
2013-02-12 19:26:00,28.9,24.9,30.03,WSW,252,9.0,14.0,85,0.00,,,0.00,WUHU216DAVISVP2,2013-02-13 00:26:00,
2013-02-12 19:31:00,28.9,25.2,30.03,WSW,258,10.0,14.0,86,0.00,,,0.00,WUHU216DAVISVP2,2013-02-13 00:31:00,
2013-02-12 19:36:00,28.8,25.1,30.03,WSW,243,9.0,13.0,86,0.00,,,0.00,WUHU216DAVISVP2,2013-02-13 00:36:00,
2013-02-12 19:41:00,28.8,24.8,30.03,WSW,248,10.0,13.0,85,0.00,,,0.00,WUHU216DAVISVP2,2013-02-13 00:41:00,
2013-02-12 19:46:00,28.7,24.7,30.03,West,260,8.0,15.0,85,0.00,,,0.00,WUHU216DAVISVP2,2013-02-13 00:46:00,
2013-02-12 19:51:00,28.7,24.7,30.03,WSW,257,6.0,15.0,85,0.00,,,0.00,WUHU216DAVISVP2,2013-02-13 00:51:00,
2013-02-12 19:56:00,28.6,24.6,30.02,WSW,256,10.0,14.0,85,0.00,,,0.00,WUHU216DAVISVP2,2013-02-13 00:56:00,
2013-02-12 20:01:00,28.6,24.6,30.03,WSW,256,8.0,14.0,85,0.00,,,0.00,WUHU216DAVISVP2,2013-02-13 01:01:00,
2013-02-12 20:06:00,28.6,24.7,30.02,West,260,11.0,14.0,85,0.00,,,0.00,WUHU216DAVISVP2,2013-02-13 01:06:00,
2013-02-12 20:11:00,28.6,24.7,30.02,West,271,4.0,14.0,85,0.00,,,0.00,WUHU216DAVISVP2,2013-02-13 01:11:00,
2013-02-12 20:16:00,28.6,24.7,30.02,West,274,3.0,12.0,85,0.00,,,0.00,WUHU216DAVISVP2,2013-02-13 01:16:00,
2013-02-12 20:21:00,28.7,24.8,30.02,WNW,284,3.0,11.0,85,0.00,,,0.00,WUHU216DAVISVP2,2013-02-13 01:21:00,
2013-02-12 20:26:00,28.6,24.6,30.02,WNW,283,3.0,11.0,85,0.00,,,0.00,WUHU216DAVISVP2,2013-02-13 01:26:00,
2013-02-12 20:31:00,28.6,24.6,30.02,West,280,3.0,11.0,85,0.00,,,0.00,WUHU216DAVISVP2,2013-02-13 01:31:00,
2013-02-12 20:36:00,28.6,24.6,30.02,WNW,293,4.0,8.0,85,0.00,,,0.00,WUHU216DAVISVP2,2013-02-13 01:36:00,
2013-02-12 20:41:00,28.5,24.3,30.02,West,268,1.0,8.0,84,0.00,,,0.00,WUHU216DAVISVP2,2013-02-13 01:41:00,
2013-02-12 20:46:00,28.5,24.3,30.02,WNW,298,2.0,6.0,84,0.00,,,0.00,WUHU216DAVISVP2,2013-02-13 01:46:00,
2013-02-12 20:51:00,28.5,24.3,30.02,WNW,288,1.0,6.0,84,0.00,,,0.00,WUHU216DAVISVP2,2013-02-13 01:51:00,
2013-02-12 20:56:00,28.5,24.3,30.02,WNW,287,2.0,5.0,84,0.00,,,0.00,WUHU216DAVISVP2,2013-02-13 01:56:00,
2013-02-12 21:01:00,28.5,24.3,30.02,WNW,287,6.0,6.0,84,0.00,,,0.00,WUHU216DAVISVP2,2013-02-13 02:01:00,
2013-02-12 21:06:00,28.4,24.2,30.02,West,278,6.0,10.0,84,0.00,,,0.00,WUHU216DAVISVP2,2013-02-13 02:06:00,
2013-02-12 21:11:00,28.3,24.1,30.02,WSW,252,7.0,10.0,84,0.00,,,0.00,WUHU216DAVISVP2,2013-02-13 02:11:00,
2013-02-12 21:16:00,28.4,24.4,30.01,West,264,6.0,10.0,85,0.00,,,0.00,WUHU216DAVISVP2,2013-02-13 02:16:00,
2013-02-12 21:21:00,28.4,24.4,30.01,WNW,288,6.0,10.0,85,0.00,,,0.00,WUHU216DAVISVP2,2013-02-13 02:21:00,
2013-02-12 21:26:00,28.4,24.4,30.01,West,267,4.0,9.0,85,0.00,,,0.00,WUHU216DAVISVP2,2013-02-13 02:26:00,
2013-02-12 21:31:00,28.5,24.5,30.01,West,268,6.0,8.0,85,0.00,,,0.00,WUHU216DAVISVP2,2013-02-13 02:31:00,
2013-02-12 21:36:00,28.4,24.2,30.01,West,264,6.0,8.0,84,0.00,,,0.00,WUHU216DAVISVP2,2013-02-13 02:36:00,
2013-02-12 21:41:00,28.4,24.2,30.00,WSW,253,6.0,8.0,84,0.00,,,0.00,WUHU216DAVISVP2,2013-02-13 02:41:00,
2013-02-12 21:46:00,28.3,24.1,30.00,WNW,291,3.0,8.0,84,0.00,,,0.00,WUHU216DAVISVP2,2013-02-13 02:46:00,
2013-02-12 21:51:00,28.3,24.1,30.00,West,266,2.0,8.0,84,0.00,,,0.00,WUHU216DAVISVP2,2013-02-13 02:51:00,
2013-02-12 21:56:00,28.3,24.1,30.00,West,278,3.0,8.0,84,0.00,,,0.00,WUHU216DAVISVP2,2013-02-13 02:56:00,
2013-02-12 22:01:00,28.3,24.1,30.00,WNW,291,0.0,7.0,84,0.00,,,0.00,WUHU216DAVISVP2,2013-02-13 03:01:00,
2013-02-12 22:06:00,28.3,24.3,30.00,WSW,257,3.0,7.0,85,0.00,,,0.00,WUHU216DAVISVP2,2013-02-13 03:06:00,
2013-02-12 22:11:00,28.3,24.3,30.00,West,273,0.0,7.0,85,0.00,,,0.00,WUHU216DAVISVP2,2013-02-13 03:11:00,
2013-02-12 22:16:00,28.3,24.3,30.00,West,263,1.0,5.0,85,0.00,,,0.00,WUHU216DAVISVP2,2013-02-13 03:16:00,
2013-02-12 22:21:00,28.3,24.3,30.00,West,281,1.0,5.0,85,0.00,,,0.00,WUHU216DAVISVP2,2013-02-13 03:21:00,
2013-02-12 22:26:00,28.3,24.3,30.00,NW,311,3.0,4.0,85,0.00,,,0.00,WUHU216DAVISVP2,2013-02-13 03:26:00,
2013-02-12 22:31:00,28.2,24.2,30.00,NW,308,0.0,4.0,85,0.00,,,0.00,WUHU216DAVISVP2,2013-02-13 03:31:00,
2013-02-12 22:36:00,28.2,24.2,29.99,NW,311,2.0,4.0,85,0.00,,,0.00,WUHU216DAVISVP2,2013-02-13 03:36:00,
2013-02-12 22:41:00,28.1,24.1,30.00,WNW,290,0.0,4.0,85,0.00,,,0.00,WUHU216DAVISVP2,2013-02-13 03:41:00,
2013-02-12 22:46:00,28.0,24.0,30.00,SSW,203,1.0,3.0,85,0.00,,,0.00,WUHU216DAVISVP2,2013-02-13 03:46:00,
2013-02-12 22:51:00,28.0,24.0,30.00,WSW,245,2.0,3.0,85,0.00,,,0.00,WUHU216DAVISVP2,2013-02-13 03:51:00,
2013-02-12 22:56:00,28.0,24.3,29.99,WSW,255,2.0,4.0,86,0.00,,,0.00,WUHU216DAVISVP2,2013-02-13 03:56:00,
2013-02-12 23:01:00,27.9,23.9,29.99,West,259,3.0,6.0,85,0.00,,,0.00,WUHU216DAVISVP2,2013-02-13 04:01:00,
2013-02-12 23:06:00,27.8,23.6,29.99,West,270,2.0,6.0,84,0.00,,,0.00,WUHU216DAVISVP2,2013-02-13 04:06:00,
2013-02-12 23:11:00,27.9,23.9,29.99,NW,316,3.0,6.0,85,0.00,,,0.00,WUHU216DAVISVP2,2013-02-13 04:11:00,
2013-02-12 23:16:00,27.9,23.9,29.99,WNW,297,1.0,5.0,85,0.00,,,0.00,WUHU216DAVISVP2,2013-02-13 04:16:00,
2013-02-12 23:21:00,27.8,23.9,29.99,West,278,1.0,4.0,85,0.00,,,0.00,WUHU216DAVISVP2,2013-02-13 04:21:00,
2013-02-12 23:26:00,27.8,23.9,29.99,West,274,1.0,4.0,85,0.00,,,0.00,WUHU216DAVISVP2,2013-02-13 04:26:00,
2013-02-12 23:31:00,27.8,24.1,29.99,WSW,253,5.0,6.0,86,0.00,,,0.00,WUHU216DAVISVP2,2013-02-13 04:31:00,
2013-02-12 23:36:00,27.8,23.9,29.99,WSW,256,2.0,6.0,85,0.00,,,0.00,WUHU216DAVISVP2,2013-02-13 04:36:00,
2013-02-12 23:41:00,27.8,24.1,29.99,WSW,257,0.0,6.0,86,0.00,,,0.00,WUHU216DAVISVP2,2013-02-13 04:41:00,
2013-02-12 23:46:00,27.8,23.9,29.99,West,281,1.0,5.0,85,0.00,,,0.00,WUHU216DAVISVP2,2013-02-13 04:46:00,
2013-02-12 23:51:00,27.8,24.1,29.99,WNW,300,2.0,4.0,86,0.00,,,0.00,WUHU216DAVISVP2,2013-02-13 04:51:00,
2013-02-12 23:56:00,27.8,23.9,29.99,West,264,4.0,7.0,85,0.00,,,0.00,WUHU216DAVISVP2,2013-02-13 04:56:00,